When you browse on this site, cookies collect data to enhance your experience and personalize the content and advertising you see.
Visit our Privacy Policy to learn more. By continuing to use the site, you agree to this use of cookies and data.
  • In Austria
  • List of Countries
  • For 7 days
  • Water Temperature
  • Satellite Maps
  • Weather Map
  • News
  • Weather Widgets
  • user-avatar
    Login

    Hourly Weather Annaba

    Today, 21 February, Thursday

    Time Temperature Precipitation Wind Pressure Humidity
    00:00 +11°C° 0 mm 1 mps 767 mmHg 89%
    01:00 +10°C° 0 mm 1 mps 767 mmHg 90%
    02:00 +9°C° 0 mm 2 mps 767 mmHg 90%
    03:00 +9°C° 0 mm 2 mps 767 mmHg 90%
    04:00 +9°C° 0 mm 2 mps 767 mmHg 90%
    05:00 +9°C° 0 mm 2 mps 767 mmHg 90%
    06:00 +8°C° 0 mm 2 mps 768 mmHg 90%
    07:00 +8°C° 0 mm 2 mps 768 mmHg 90%
    08:00 +10°C° 0 mm 2 mps 768 mmHg 84%
    09:00 +13°C° 0 mm 2 mps 768 mmHg 78%
    10:00 +15°C° 0 mm 1 mps 769 mmHg 72%
    11:00 +16°C° 0 mm 1 mps 769 mmHg 68%
    12:00 +18°C° 0 mm 1 mps 769 mmHg 65%
    13:00 +19°C° 0 mm 1 mps 768 mmHg 61%
    14:00 +17°C° 0 mm 2 mps 768 mmHg 63%
    15:00 +17°C° 0 mm 2 mps 768 mmHg 64%
    16:00 +17°C° 0 mm 2 mps 768 mmHg 66%
    17:00 +15°C° 0 mm 2 mps 768 mmHg 73%
    18:00 +14°C° 0 mm 1 mps 769 mmHg 80%
    19:00 +12°C° 0 mm 1 mps 769 mmHg 88%
    20:00 +12°C° 0 mm 1 mps 770 mmHg 89%
    21:00 +11°C° 0 mm 1 mps 770 mmHg 90%
    22:00 +11°C° 0 mm 1 mps 770 mmHg 91%
    23:00 +11°C° 0 mm 1 mps 771 mmHg 92%

    Tomorrow, 22 February, Friday

    Time Temperature Precipitation Wind Pressure Humidity
    00:00 +10°C° 0 mm 1 mps 771 mmHg 92%
    01:00 +9°C° 0 mm 2 mps 771 mmHg 92%
    02:00 +9°C° 0 mm 2 mps 770 mmHg 92%
    03:00 +9°C° 0 mm 2 mps 770 mmHg 92%
    04:00 +8°C° 0 mm 2 mps 770 mmHg 92%
    05:00 +8°C° 0 mm 2 mps 770 mmHg 91%
    06:00 +8°C° 0 mm 3 mps 770 mmHg 91%
    07:00 +8°C° 0 mm 3 mps 770 mmHg 90%
    08:00 +9°C° 0.1 mm 3 mps 770 mmHg 86%
    09:00 +11°C° 0.1 mm 3 mps 770 mmHg 83%
    10:00 +12°C° 0.1 mm 3 mps 770 mmHg 79%
    11:00 +13°C° 0.1 mm 3 mps 770 mmHg 77%
    12:00 +13°C° 0.1 mm 4 mps 770 mmHg 74%
    13:00 +14°C° 0.1 mm 4 mps 769 mmHg 71%
    14:00 +14°C° 0 mm 4 mps 768 mmHg 69%
    15:00 +14°C° 0 mm 4 mps 768 mmHg 68%
    16:00 +14°C° 0 mm 4 mps 767 mmHg 66%
    17:00 +13°C° 0 mm 4 mps 767 mmHg 72%
    18:00 +12°C° 0 mm 4 mps 768 mmHg 78%
    19:00 +10°C° 0 mm 4 mps 768 mmHg 84%
    20:00 +10°C° 0 mm 4 mps 768 mmHg 84%
    21:00 +10°C° 0 mm 4 mps 768 mmHg 83%
    22:00 +11°C° 0 mm 3 mps 769 mmHg 82%
    23:00 +10°C° 0.1 mm 3 mps 768 mmHg 83%

    Day after tomorrow, 23 February, Saturday

    Time Temperature Precipitation Wind Pressure Humidity
    00:00 +10°C° 0.1 mm 3 mps 768 mmHg 84%
    01:00 +10°C° 0.1 mm 3 mps 768 mmHg 85%
    02:00 +10°C° 0.1 mm 3 mps 768 mmHg 84%
    03:00 +10°C° 0.1 mm 3 mps 768 mmHg 83%
    04:00 +10°C° 0.1 mm 4 mps 768 mmHg 82%
    05:00 +10°C° 0.1 mm 4 mps 768 mmHg 81%
    06:00 +8°C° 0.1 mm 4 mps 768 mmHg 79%
    07:00 +8°C° 0.1 mm 4 mps 768 mmHg 78%
    08:00 +10°C° 0 mm 4 mps 768 mmHg 77%
    09:00 +11°C° 0 mm 4 mps 768 mmHg 76%
    10:00 +12°C° 0 mm 3 mps 769 mmHg 74%
    11:00 +12°C° 0 mm 4 mps 768 mmHg 75%
    12:00 +13°C° 0 mm 4 mps 768 mmHg 75%
    13:00 +14°C° 0 mm 4 mps 768 mmHg 75%
    14:00 +14°C° 0.1 mm 4 mps 768 mmHg 76%
    15:00 +15°C° 0.1 mm 4 mps 767 mmHg 76%
    16:00 +15°C° 0.1 mm 5 mps 767 mmHg 76%
    17:00 +14°C° 0 mm 4 mps 767 mmHg 81%
    18:00 +12°C° 0 mm 3 mps 768 mmHg 85%
    19:00 +11°C° 0 mm 3 mps 768 mmHg 90%
    20:00 +11°C° 0.1 mm 3 mps 768 mmHg 90%
    21:00 +13°C° 0.1 mm 2 mps 769 mmHg 91%
    22:00 +13°C° 0.1 mm 2 mps 769 mmHg 91%
    23:00 +12°C° 0.1 mm 3 mps 769 mmHg 91%

    24 February, Sunday

    Time Temperature Precipitation Wind Pressure Humidity
    00:00 +12°C° 0.1 mm 3 mps 769 mmHg 92%
    01:00 +11°C° 0.1 mm 3 mps 768 mmHg 92%
    02:00 +12°C° 0.2 mm 3 mps 768 mmHg 92%
    03:00 +12°C° 0.2 mm 3 mps 768 mmHg 92%
    04:00 +12°C° 0.2 mm 3 mps 768 mmHg 92%
    05:00 +11°C° 0.1 mm 3 mps 768 mmHg 86%
    06:00 +11°C° 0.1 mm 4 mps 768 mmHg 81%
    07:00 +9°C° 0.1 mm 5 mps 768 mmHg 76%
    08:00 +10°C° 0 mm 5 mps 769 mmHg 71%
    09:00 +12°C° 0 mm 4 mps 769 mmHg 66%
    10:00 +13°C° 0 mm 4 mps 770 mmHg 61%
    11:00 +13°C° 0 mm 4 mps 770 mmHg 60%
    12:00 +13°C° 0 mm 4 mps 770 mmHg 58%
    13:00 +13°C° 0 mm 4 mps 770 mmHg 57%
    14:00 +13°C° 0 mm 4 mps 769 mmHg 58%
    15:00 +13°C° 0 mm 4 mps 769 mmHg 59%
    16:00 +12°C° 0 mm 5 mps 769 mmHg 60%
    17:00 +11°C° 0 mm 4 mps 770 mmHg 61%
    18:00 +10°C° 0 mm 3 mps 770 mmHg 62%
    19:00 +9°C° 0 mm 3 mps 770 mmHg 64%
    20:00 +9°C° 0 mm 2 mps 771 mmHg 65%
    21:00 +8°C° 0 mm 2 mps 771 mmHg 66%
    22:00 +9°C° 0 mm 1 mps 771 mmHg 67%
    23:00 +7°C° 0 mm 2 mps 771 mmHg 69%

    25 February, Monday

    Time Temperature Precipitation Wind Pressure Humidity
    00:00 +7°C° 0 mm 2 mps 771 mmHg 72%
    01:00 +7°C° 0 mm 3 mps 771 mmHg 75%
    02:00 +5°C° 0 mm 3 mps 771 mmHg 75%
    03:00 +5°C° 0 mm 3 mps 770 mmHg 76%
    04:00 +5°C° 0 mm 4 mps 770 mmHg 76%
    05:00 +5°C° 0 mm 4 mps 770 mmHg 75%
    06:00 +7°C° 0 mm 3 mps 770 mmHg 75%
    07:00 +7°C° 0 mm 3 mps 770 mmHg 74%
    08:00 +9°C° 0 mm 3 mps 770 mmHg 75%
    09:00 +11°C° 0 mm 3 mps 770 mmHg 75%
    10:00 +12°C° 0 mm 3 mps 770 mmHg 76%
    11:00 +13°C° 0.1 mm 3 mps 770 mmHg 75%
    12:00 +13°C° 0.1 mm 4 mps 769 mmHg 74%
    13:00 +14°C° 0.1 mm 4 mps 769 mmHg 73%
    14:00 +14°C° 0 mm 4 mps 769 mmHg 72%
    15:00 +14°C° 0 mm 4 mps 768 mmHg 71%
    16:00 +14°C° 0 mm 4 mps 768 mmHg 70%
    17:00 +13°C° 0 mm 4 mps 768 mmHg 73%
    18:00 +12°C° 0 mm 3 mps 769 mmHg 76%
    19:00 +11°C° 0 mm 3 mps 769 mmHg 80%
    20:00 +11°C° 0 mm 3 mps 769 mmHg 83%
    21:00 +10°C° 0 mm 3 mps 769 mmHg 86%
    22:00 +10°C° 0 mm 3 mps 770 mmHg 89%
    23:00 +10°C° 0 mm 3 mps 770 mmHg 89%

    26 February, Tuesday

    Time Temperature Precipitation Wind Pressure Humidity
    00:00 +10°C° 0 mm 3 mps 769 mmHg 88%
    01:00 +10°C° 0 mm 3 mps 769 mmHg 88%
    02:00 +10°C° 0 mm 3 mps 769 mmHg 88%
    03:00 +9°C° 0 mm 3 mps 769 mmHg 87%
    04:00 +9°C° 0 mm 3 mps 769 mmHg 87%
    05:00 +9°C° 0 mm 3 mps 769 mmHg 86%
    06:00 +9°C° 0 mm 3 mps 769 mmHg 84%
    07:00 +9°C° 0 mm 3 mps 769 mmHg 83%
    08:00 +10°C° 0 mm 3 mps 769 mmHg 81%
    09:00 +11°C° 0 mm 3 mps 770 mmHg 78%
    10:00 +12°C° 0 mm 3 mps 770 mmHg 76%
    11:00 +14°C° 0 mm 2 mps 770 mmHg 71%
    12:00 +16°C° 0 mm 2 mps 770 mmHg 66%
    13:00 +18°C° 0 mm 1 mps 769 mmHg 61%
    14:00 +17°C° 0 mm 2 mps 769 mmHg 62%
    15:00 +17°C° 0 mm 2 mps 769 mmHg 64%
    16:00 +17°C° 0 mm 2 mps 769 mmHg 65%
    17:00 +15°C° 0 mm 2 mps 769 mmHg 72%
    18:00 +13°C° 0 mm 2 mps 769 mmHg 79%
    19:00 +12°C° 0 mm 2 mps 770 mmHg 86%
    20:00 +11°C° 0 mm 1 mps 770 mmHg 87%
    21:00 +11°C° 0 mm 1 mps 770 mmHg 88%
    22:00 +10°C° 0 mm 1 mps 770 mmHg 90%
    23:00 +10°C° 0 mm 1 mps 770 mmHg 90%
    Show more